CZ-6A DEB, 54952

Orbit data source: Space-Track

CZ-6A DEB, 54952 is space debris in SSO originally from a launch on Fri, 11 Nov 2022 UTC launched from the Taiyaun Space Center, China (TSC). Debris objects in space refer to the collection of defunct objects orbiting the Earth. Examples of debris include non-operational satellites, rocket bodies, and fragments generated from explosions, collisions, or faulty payload assembly.

Loading next visibility...
Identifier
54952, 2022-151SR
Orbit
SSO
Country
Flag of CNCN / PRC
Related business
Manufacturer
SAST
Mission
Spacecraft
Bus & Motor
Unknown
Mass
Unknown
Launch date (UTC)
2022-11-11 (3 years ago)
Launch vehicle
Unknown
Launch site
Taiyaun Space Center, China (TSC)
Object type
Payload
Rocket body
Debris
Shape & HBR
Unknown shape, 0.6 m
Radar Cross Section
Medium (>0.1 m² and <1 m²)

Expand to show TLE details & history
Last TLE update: 17 hours ago

TLE from 17 hours ago
0 CZ-6A DEB
1 54952U 22151SR  25348.88326725  .00000643  00000-0  47794-3 0  9996
2 54952  98.9273 328.0852 0112838 219.1520 140.1439 13.95634363157093
Epoch: 2025-12-14T21:11Z
TLE epoch observation values (Epoch: 2025-12-14T21:11:54.290Z)
Latitude
-0.00002°
Longitude
-73.6808°
Altitude
975.336 km
Speed
7.332 km/s
True Right ascension
21h 52m 20s
True Declination
0° 00' 00"
Sunlit
Object was in daylight at epoch
Visualization orbit readout
Latitude
Unknown
Longitude
Unknown
Altitude
Unknown
Speed
Unknown
Apparent Right ascension
Unknown
Apparent Declination
Unknown
Sunlit
N/A
Visualization observer readout
Local Sidereal Time
13:18:50
Azimuth
Unknown
Elevation
Unknown
Doppler factor
Unknown
Orbital elements
Apogee altitude
988.348 km
Perigee altitude
823.959 km
Semi-major axis
7,284.29 km
Eccentricity
0.01128
Inclination
98.9273°
RAAN
328.0852°
Arg. of periapsis
219.152°
True anomaly
140.96364°
Mean anomaly
140.1439°
Eccentric anomaly
140.55466°
Mean motion
3.4911 °/min
Orbital period
103.12 mins
BSTAR
0.00047794
Loading maneuver chart data...
Computing Atmospheric mass density...
Loading historical data...
Loading historical data...
Loading historical data...
Loading historical data...
Loading historical data...
Loading historical data...
Loading historical data...

Documentation

Showing up to 5 results
|